Погода в Бамболиме

Индия     15°28′46″N   73°51′19″E
темп.,
°C
ветер,
м/с
пор.,
м/с
влажн.,
%
обл.,
%
осадки,
мм/ч
давл.,
гПа
погр.,
м
26 сентября, вс
вс2623:30+27зсз458334 3.3 1008369
02:30+26сз3483100 0.9 1006395
05:30+26ссв338699 1.7 1006221
08:30+26св228498 0.1 1008211
11:30+27зсз3377100 0.1 1008541
14:30+28зсз5577100 0.1 1005569
17:30+28сз567999 0.1 1005732
20:30+27сз5683100 0.3 1007540
27 сентября, пн
пн2723:30+27ссз458498 0.3 1006481
02:30+26ссз458484 0.3 1004492
05:30+26ссз3485100 0.5 1004395
08:30+27с238096 0.1 1006478
11:30+28зсз447595 0.3 1006697
14:30+28з557498 0.0 1003745
17:30+28зсз567799 0.6 1003735
20:30+26з4683100 2.6 1005424
28 сентября, вт
вт2823:30+26з5683100 5.9 1006480
02:30+26зсз6783100 4.3 1004505
05:30+25сз3587100 8.6 1004291
08:30+25ссз2485100 4.8 1007272
11:30+25з0287100 7.5 1007175
14:30+26з7982100 4.7 1004725
17:30+27зюз81082100 8.8 1004780
20:30+27зюз81084100 4.3 1006738
29 сентября, ср
ср2923:30+27зюз91184100 12.6 1006659
02:30+27юз91183100 5.4 1004797
05:30+27юз8108386 8.6 1005798
08:30+27юз8982100 3.6 1008825
11:30+28юз7981100 6.9 1008863
14:30+27юз7883100 3.4 1006731
17:30+27юз5784100 6.4 1006610
20:30+27юз6785100 4.3 1008575
30 сентября, чт
чт3023:30+26юз4587100 7.6 1009361
02:30+26ююз238899 3.6 1007224
05:30+25в338766 5.6 1007157
08:30+26юв44859 0.8 1010236
11:30+28ююз44768 1.1 1009602
14:30+28юз44776 1.4 1007614
17:30+27ююз338192 2.9 1008329
20:30+27ююз228155 0.5 1010148